WXM80 ListenWXM80 Stop

You find our weather info also at:

UK Metoffice

WeatherCloud

Weather Underground

Northeastern Weather Network

AWEKAS

Citizen Weather Observer Program (CWOP)

HAMweather, WeatherForYou, PWS Weather


Weather Underground History page Text

Daily Summary for January 26, 2017 Units:  Metric    English   Both
« Previous Day
Next Day »
Daily Weekly Monthly Yearly Custom
  High: Low: Average:
Temperature: 11.2 °C 5.7 °C 7.7 °C
Dew Point: 7.9 °C -0.8 °C 3.6 °C
Humidity: 93 % 53 % 76 %
Wind Speed: 26.7 km/h 0 km/h 7.1 km/h
Wind Gust: 38.9 km/h - -
Wind:- - WSW
Pressure: 999.9 hPa 991.1 hPa -
Precipitation: 0.25 mm    
Historical Graphs
 
 
Tabular Data for January 26, 2017
Time Temperature Dew Point Pressure Wind Wind Speed Wind Gust Humidity Rainfall Rate (Hourly)
00:01 7.4 °C 3.7 °C 999.9 hPa South 1.9 km/h 5.6 km/h 77 % 0 mm
00:06 7.6 °C 3.8 °C 999.9 hPa SSW 1.8 km/h 11.1 km/h 77 % 0 mm
00:11 7.6 °C 3.6 °C 999.5 hPa SSW 3.5 km/h 9.3 km/h 76 % 0 mm
00:16 7.6 °C 3.7 °C 999.5 hPa West 2.4 km/h 11.1 km/h 76 % 0 mm
00:21 7.7 °C 3.7 °C 999.9 hPa SSW 6.1 km/h 13 km/h 76 % 0 mm
00:26 7.7 °C 3.8 °C 999.5 hPa SW 9 km/h 13 km/h 76 % 0 mm
00:31 7.8 °C 3.8 °C 999.5 hPa SW 6.6 km/h 14.8 km/h 76 % 0 mm
00:36 7.8 °C 3.8 °C 999.5 hPa SW 2.7 km/h 5.6 km/h 76 % 0 mm
00:41 7.8 °C 3.8 °C 999.5 hPa WSW 5.3 km/h 11.1 km/h 76 % 0 mm
00:46 7.8 °C 4.1 °C 999.5 hPa SW 2.1 km/h 3.7 km/h 77 % 0 mm
00:52 7.8 °C 4.1 °C 999.2 hPa South 1.3 km/h 5.6 km/h 77 % 0 mm
00:57 7.8 °C 4.1 °C 999.2 hPa WSW 0.8 km/h 5.6 km/h 77 % 0 mm
01:02 7.8 °C 4.1 °C 999.2 hPa SW 6.9 km/h 13 km/h 77 % 0 mm
01:07 7.9 °C 4.1 °C 999.2 hPa WSW 6.1 km/h 11.1 km/h 77 % 0 mm
01:12 7.9 °C 4.2 °C 999.2 hPa SSW 2.9 km/h 5.6 km/h 77 % 0 mm
01:17 7.9 °C 4.2 °C 998.9 hPa SW 3.1 km/h 5.6 km/h 77 % 0 mm
01:22 8.1 °C 4.3 °C 998.9 hPa SSW 4.5 km/h 9.7 km/h 77 % 0 mm
01:27 8.1 °C 4.3 °C 998.9 hPa SSW 4.2 km/h 8 km/h 77 % 0 mm
01:32 8.1 °C 4.3 °C 998.9 hPa SSW 4.5 km/h 5.6 km/h 77 % 0 mm
01:37 8.2 °C 4.4 °C 998.5 hPa SSW 2.6 km/h 5.6 km/h 77 % 0 mm
01:39 8.2 °C 4.4 °C 998.5 hPa SW 3.4 km/h 5.6 km/h 77 % 0 mm
01:44 8.3 °C 4.5 °C 998.5 hPa WSW 2.3 km/h 9.7 km/h 77 % 0 mm
01:49 8.4 °C 4.6 °C 998.5 hPa WSW 2.3 km/h 11.1 km/h 77 % 0 mm
01:54 8.5 °C 4.7 °C 998.5 hPa WSW 4.8 km/h 16.7 km/h 77 % 0 mm
01:59 8.6 °C 4.6 °C 998.5 hPa SW 2.4 km/h 7.4 km/h 76 % 0 mm
02:04 8.7 °C 4.7 °C 998.5 hPa SW 0.3 km/h 3.7 km/h 76 % 0 mm
02:09 8.7 °C 4.7 °C 998.5 hPa Calm     76 % 0 mm
02:14 8.8 °C 4.8 °C 998.5 hPa SW 2.4 km/h 5.6 km/h 76 % 0 mm
02:19 8.8 °C 4.8 °C 998.2 hPa SW 7.7 km/h 14.8 km/h 76 % 0 mm
02:24 8.8 °C 4.9 °C 998.2 hPa SSW 3.5 km/h 11.1 km/h 77 % 0 mm
02:29 8.8 °C 4.9 °C 998.2 hPa West 0.3 km/h 5.6 km/h 77 % 0 mm
02:34 8.8 °C 4.9 °C 998.2 hPa South 1 km/h 3.7 km/h 77 % 0 mm
02:39 8.7 °C 5.1 °C 998.2 hPa SW 4.8 km/h 6.4 km/h 78 % 0 mm
02:44 8.7 °C 5.1 °C 997.9 hPa WSW 7.9 km/h 11.3 km/h 78 % 0 mm
02:49 8.7 °C 5.2 °C 998.2 hPa SW 7.2 km/h 9.3 km/h 79 % 0 mm
02:54 8.6 °C 5.2 °C 997.9 hPa SW 1.1 km/h 5.6 km/h 79 % 0 mm
02:59 8.6 °C 5.2 °C 997.9 hPa SW 4.5 km/h 9.3 km/h 79 % 0 mm
03:05 8.6 °C 5.3 °C 997.5 hPa WSW 6.8 km/h 6.8 km/h 80 % 0 mm
03:10 8.6 °C 5.3 °C 997.5 hPa West 3.4 km/h 9.3 km/h 80 % 0 mm
03:13 8.6 °C 5.3 °C 997.5 hPa WSW 2.4 km/h 5.6 km/h 80 % 0 mm
03:18 8.5 °C 5.4 °C 997.2 hPa SW 10 km/h 16.7 km/h 81 % 0 mm
03:23 8.4 °C 5.4 °C 997.2 hPa WSW 6.4 km/h 14.8 km/h 81 % 0 mm
03:28 8.4 °C 5.6 °C 997.2 hPa SW 2.7 km/h 5.6 km/h 82 % 0 mm
03:33 8.4 °C 5.5 °C 997.5 hPa SSW 7.6 km/h 13 km/h 82 % 0 mm
03:38 8.4 °C 5.7 °C 997.5 hPa WSW 0.6 km/h 4.8 km/h 83 % 0 mm
03:43 8.4 °C 5.7 °C 997.2 hPa SW 7.7 km/h 12.9 km/h 83 % 0 mm
03:48 8.3 °C 5.8 °C 996.8 hPa SW 5.6 km/h 13 km/h 84 % 0 mm
03:53 8.3 °C 5.8 °C 996.8 hPa SSW 2.4 km/h 5.6 km/h 84 % 0 mm
03:58 8.3 °C 5.7 °C 996.5 hPa SW 3.2 km/h 5.6 km/h 84 % 0 mm
04:03 8.2 °C 5.7 °C 996.2 hPa SW 4 km/h 9.3 km/h 84 % 0 mm
04:08 8.2 °C 5.8 °C 996.2 hPa SW 1.6 km/h 3.7 km/h 85 % 0 mm
04:13 8.1 °C 5.7 °C 996.2 hPa SSW 5.1 km/h 11.1 km/h 85 % 0 mm
04:18 8.1 °C 5.7 °C 996.2 hPa SSW 7.1 km/h 9.3 km/h 85 % 0 mm
04:23 8.1 °C 5.7 °C 996.2 hPa SSW 6 km/h 9.7 km/h 85 % 0 mm
04:29 8.1 °C 5.7 °C 996.5 hPa SW 5.8 km/h 11.1 km/h 85 % 0 mm
04:34 8.1 °C 5.7 °C 996.5 hPa SW 4.8 km/h 9.3 km/h 85 % 0 mm
04:39 8.1 °C 5.6 °C 996.5 hPa SW 9.7 km/h 12.9 km/h 84 % 0 mm
04:42 8.2 °C 5.6 °C 996.5 hPa SW 10.6 km/h 16.7 km/h 84 % 0 mm
04:47 8.2 °C 5.5 °C 996.5 hPa SW 6.9 km/h 11.1 km/h 83 % 0 mm
04:52 8.3 °C 5.6 °C 996.5 hPa SW 9.2 km/h 13 km/h 83 % 0 mm
04:57 8.3 °C 5.6 °C 996.2 hPa West 5.5 km/h 7.4 km/h 83 % 0 mm
05:02 8.3 °C 5.4 °C 996.2 hPa WNW 4.5 km/h 9.3 km/h 82 % 0 mm
05:07 8.3 °C 5.4 °C 996.5 hPa WSW 2.9 km/h 5.6 km/h 82 % 0 mm
05:12 8.3 °C 5.4 °C 996.2 hPa SW 0.5 km/h 3.2 km/h 82 % 0 mm
05:17 8.3 °C 5.4 °C 996.2 hPa SW 1.4 km/h 5.6 km/h 82 % 0 mm
05:18 8.3 °C 5.4 °C 996.2 hPa SW 1.6 km/h 3.7 km/h 82 % 0 mm
05:23 8.3 °C 5.4 °C 995.8 hPa Calm     82 % 0 mm
05:28 8.3 °C 5.2 °C 995.8 hPa NNW 0.2 km/h 1.9 km/h 81 % 0 mm
05:33 8.2 °C 5.2 °C 995.8 hPa Calm     81 % 0 mm
05:38 8.1 °C 5.2 °C 995.8 hPa NW 3.2 km/h 5.6 km/h 82 % 0 mm
05:43 7.9 °C 5.1 °C 995.5 hPa Calm     82 % 0 mm
05:48 7.7 °C 4.8 °C 995.8 hPa NW 0.5 km/h 5.6 km/h 82 % 0 mm
05:53 7.5 °C 4.6 °C 995.8 hPa NW 2.4 km/h 3.2 km/h 82 % 0 mm
05:58 7.3 °C 4.4 °C 995.8 hPa WNW 0.6 km/h 3.7 km/h 82 % 0 mm
06:04 7.1 °C 4.2 °C 995.5 hPa NW 0.6 km/h 3.7 km/h 82 % 0 mm
06:09 6.9 °C 4.3 °C 995.5 hPa NW 0.2 km/h 1.6 km/h 83 % 0 mm
06:14 6.9 °C 4.2 °C 995.8 hPa Calm     83 % 0 mm
06:19 6.8 °C 4.1 °C 995.8 hPa Calm   3.2 km/h 83 % 0 mm
06:24 6.7 °C 4.2 °C 996.2 hPa West 1.6 km/h 4.8 km/h 84 % 0 mm
06:29 6.6 °C 4.1 °C 995.8 hPa Calm     84 % 0 mm
06:34 6.6 °C 4.2 °C 995.5 hPa Calm     85 % 0 mm
06:39 6.5 °C 4.2 °C 995.5 hPa Calm     85 % 0 mm
06:44 6.4 °C 4.3 °C 995.8 hPa Calm   1.6 km/h 86 % 0 mm
06:49 6.4 °C 4.3 °C 995.5 hPa Calm   1.6 km/h 86 % 0 mm
06:54 6.4 °C 4.2 °C 995.5 hPa Calm   1.6 km/h 86 % 0 mm
06:59 6.3 °C 4.2 °C 995.5 hPa Calm     86 % 0 mm
07:04 6.3 °C 4.1 °C 995.8 hPa Calm     86 % 0 mm
07:09 6.3 °C 4.1 °C 995.8 hPa Calm     86 % 0 mm
07:14 6.3 °C 4.3 °C 995.5 hPa Calm     87 % 0 mm
07:19 6.2 °C 4.2 °C 995.8 hPa Calm     87 % 0 mm
07:24 6.2 °C 4.2 °C 995.5 hPa Calm     87 % 0 mm
07:29 6.2 °C 4.2 °C 995.5 hPa Calm     87 % 0 mm
07:34 6.1 °C 4.1 °C 995.5 hPa Calm     87 % 0 mm
07:44 6.1 °C 4.1 °C 995.1 hPa Calm     87 % 0 mm
07:49 6 °C 4 °C 995.5 hPa Calm     87 % 0 mm
07:54 5.9 °C 3.9 °C 995.5 hPa Calm     87 % 0 mm
07:59 5.9 °C 4.1 °C 995.8 hPa Calm     88 % 0 mm
08:05 5.9 °C 4.1 °C 995.8 hPa Calm     88 % 0 mm
08:10 5.9 °C 4.1 °C 995.8 hPa Calm     88 % 0 mm
08:15 5.9 °C 4.1 °C 995.5 hPa Calm     88 % 0 mm
08:20 5.9 °C 4.1 °C 995.5 hPa SW 1 km/h 1.6 km/h 88 % 0 mm
08:25 5.9 °C 4.3 °C 995.5 hPa Calm     89 % 0 mm
08:30 6 °C 4.3 °C 995.5 hPa Calm     89 % 0 mm
08:35 6 °C 4.3 °C 995.1 hPa Calm     89 % 0 mm
08:40 6.1 °C 4.4 °C 995.1 hPa Calm     89 % 0 mm
08:45 6.1 °C 4.6 °C 995.5 hPa Calm     90 % 0 mm
08:50 6.2 °C 4.7 °C 995.5 hPa SW 2.6 km/h 5.6 km/h 90 % 0 mm
08:55 6.2 °C 4.7 °C 995.5 hPa Calm   1.9 km/h 90 % 0 mm
09:00 6.3 °C 4.8 °C 995.8 hPa SW 1.6 km/h 3.7 km/h 90 % 0 mm
09:05 6.3 °C 4.8 °C 995.8 hPa SW 1.6 km/h 3.2 km/h 90 % 0 mm
09:10 6.4 °C 4.9 °C 995.8 hPa SSW 2.7 km/h 4.8 km/h 90 % 0 mm
09:15 6.6 °C 5.1 °C 995.5 hPa SW 3.1 km/h 5.6 km/h 90 % 0 mm
09:20 6.7 °C 5.2 °C 995.8 hPa SSW 1.4 km/h 1.9 km/h 90 % 0 mm
09:25 6.7 °C 5.2 °C 995.5 hPa SSW 0.6 km/h 3.7 km/h 90 % 0 mm
09:30 6.8 °C 5.3 °C 995.5 hPa Calm   1.9 km/h 90 % 0 mm
09:36 6.9 °C 5.6 °C 995.8 hPa SSW 2.6 km/h 3.7 km/h 91 % 0 mm
09:41 7.1 °C 5.7 °C 995.5 hPa WSW 1.9 km/h 4.8 km/h 91 % 0 mm
09:46 7.1 °C 5.7 °C 995.5 hPa WSW 0.2 km/h 1.9 km/h 91 % 0 mm
09:51 7.2 °C 5.8 °C 995.5 hPa WSW 0.2 km/h 3.7 km/h 91 % 0 mm
09:56 7.3 °C 5.9 °C 995.5 hPa SW 1.1 km/h 3.7 km/h 91 % 0 mm
10:01 7.4 °C 6.1 °C 995.5 hPa SW 0.3 km/h 1.9 km/h 91 % 0 mm
10:06 7.5 °C 6.1 °C 995.5 hPa SW 1.1 km/h 1.9 km/h 91 % 0 mm
10:11 7.6 °C 6.2 °C 995.5 hPa Calm   1.9 km/h 91 % 0 mm
10:16 7.6 °C 6.2 °C 995.8 hPa SW 0.3 km/h 1.9 km/h 91 % 0 mm
10:21 7.7 °C 6.3 °C 995.1 hPa SSW 2.4 km/h 4.8 km/h 91 % 0 mm
10:26 7.8 °C 6.4 °C 995.1 hPa SSW 0.3 km/h 1.9 km/h 91 % 0 mm
10:31 7.8 °C 6.6 °C 995.1 hPa SSW 0.8 km/h 5.6 km/h 92 % 0 mm
10:36 7.8 °C 6.6 °C 995.1 hPa SSW 2.7 km/h 5.6 km/h 92 % 0 mm
10:41 7.9 °C 6.7 °C 995.1 hPa SSW 1.4 km/h 5.6 km/h 92 % 0.25 mm
10:46 7.9 °C 6.7 °C 994.5 hPa Calm     92 % 0.25 mm
10:51 8 °C 6.8 °C 994.5 hPa Calm   1.9 km/h 92 % 0.25 mm
10:56 8.1 °C 6.8 °C 994.5 hPa SSW 1.8 km/h 5.6 km/h 92 % 0.25 mm
11:01 8.2 °C 7.1 °C 994.1 hPa South 3.4 km/h 5.6 km/h 93 % 0.25 mm
11:07 8.2 °C 7.2 °C 994.1 hPa SSW 3.2 km/h 5.6 km/h 93 % 0.25 mm
11:12 8.2 °C 7.2 °C 993.8 hPa SSE 1.4 km/h 5.6 km/h 93 % 0.25 mm
11:17 8.2 °C 7.2 °C 993.5 hPa South 4.7 km/h 5.6 km/h 93 % 0.25 mm
11:22 8.2 °C 7.2 °C 993.5 hPa South 0.8 km/h 5.6 km/h 93 % 0.25 mm
11:27 8.2 °C 7.1 °C 993.5 hPa South 2.6 km/h 5.6 km/h 93 % 0.25 mm
11:32 8.2 °C 7.1 °C 993.1 hPa South 2.6 km/h 5.6 km/h 93 % 0.25 mm
11:37 8.1 °C 7.1 °C 993.1 hPa South 4 km/h 7.4 km/h 93 % 0 mm
11:42 8.1 °C 7 °C 993.5 hPa SSW 1.9 km/h 5.6 km/h 93 % 0 mm
11:47 8.1 °C 7 °C 993.1 hPa South 1 km/h 3.7 km/h 93 % 0 mm
11:52 8.1 °C 7 °C 993.1 hPa SSE 1 km/h 5.6 km/h 93 % 0 mm
11:57 8.1 °C 7 °C 993.1 hPa SSW 3.2 km/h 7.4 km/h 93 % 0 mm
12:02 8.1 °C 7 °C 993.1 hPa SSW 5.6 km/h 13 km/h 93 % 0 mm
12:07 8.1 °C 7.1 °C 993.1 hPa South 8.5 km/h 9.7 km/h 93 % 0 mm
12:12 8.1 °C 7.1 °C 992.8 hPa South 3.4 km/h 6.4 km/h 93 % 0 mm
12:17 8.2 °C 7.1 °C 992.8 hPa South 0.8 km/h 3.2 km/h 93 % 0 mm
12:21 8.2 °C 7.1 °C 992.8 hPa SW 3.2 km/h 5.6 km/h 93 % 0 mm
12:26 8.2 °C 7.2 °C 992.4 hPa SW 1 km/h 5.6 km/h 93 % 0 mm
12:31 8.3 °C 7.3 °C 992.4 hPa SSW 4.8 km/h 7.4 km/h 93 % 0 mm
12:36 8.4 °C 7.4 °C 992.4 hPa South 6.3 km/h 11.1 km/h 93 % 0 mm
12:41 8.5 °C 7.3 °C 992.1 hPa SSW 7.1 km/h 11.1 km/h 92 % 0 mm
12:46 8.6 °C 7.4 °C 992.1 hPa SW 4.5 km/h 8 km/h 92 % 0 mm
12:51 8.8 °C 7.4 °C 992.1 hPa South 6.8 km/h 11.3 km/h 91 % 0 mm
12:56 8.9 °C 7.3 °C 992.1 hPa SSW 5.8 km/h 13 km/h 90 % 0 mm
13:01 8.9 °C 7.2 °C 992.1 hPa South 4.8 km/h 14.8 km/h 89 % 0 mm
13:06 9 °C 7.3 °C 991.8 hPa South 3.1 km/h 9.7 km/h 89 % 0 mm
13:12 9 °C 7.3 °C 992.1 hPa South 6 km/h 9.3 km/h 89 % 0 mm
13:17 9.1 °C 7.3 °C 991.8 hPa SSW 8.5 km/h 18.5 km/h 89 % 0 mm
13:22 9.2 °C 7.4 °C 991.8 hPa SW 5.8 km/h 11.1 km/h 89 % 0 mm
13:27 9.4 °C 7.7 °C 991.8 hPa SSW 5 km/h 9.3 km/h 89 % 0 mm
13:32 9.7 °C 7.8 °C 991.4 hPa SSW 8.4 km/h 14.8 km/h 88 % 0 mm
13:37 9.9 °C 7.9 °C 991.4 hPa SSW 12.7 km/h 22.2 km/h 87 % 0 mm
13:42 10.1 °C 7.9 °C 991.1 hPa SSW 5.5 km/h 9.3 km/h 86 % 0 mm
13:47 10.1 °C 7.6 °C 991.4 hPa SSW 7.9 km/h 11.3 km/h 84 % 0 mm
13:52 10.1 °C 7.6 °C 991.4 hPa South 11.1 km/h 16.7 km/h 84 % 0 mm
13:54 10.1 °C 7.6 °C 991.4 hPa SW 8.7 km/h 11.1 km/h 84 % 0 mm
14:00 10.1 °C 7.3 °C 991.4 hPa SW 11.3 km/h 20.4 km/h 83 % 0 mm
14:05 10.1 °C 7.3 °C 991.4 hPa SSW 6.6 km/h 11.3 km/h 83 % 0 mm
14:10 10.1 °C 7.6 °C 991.4 hPa SSW 11.7 km/h 13 km/h 84 % 0 mm
14:15 10.2 °C 7.6 °C 991.4 hPa WSW 7.2 km/h 14.8 km/h 84 % 0 mm
14:20 10.4 °C 7.7 °C 991.4 hPa WSW 5.8 km/h 11.1 km/h 83 % 0 mm
14:25 10.7 °C 7.9 °C 991.4 hPa WSW 7.6 km/h 18.5 km/h 83 % 0 mm
14:30 10.8 °C 7.7 °C 991.4 hPa SW 5.8 km/h 12.9 km/h 81 % 0 mm
14:35 11.1 °C 7.6 °C 991.8 hPa SW 6.8 km/h 13 km/h 79 % 0 mm
14:40 11.2 °C 7.1 °C 991.8 hPa WSW 12.4 km/h 20.4 km/h 76 % 0 mm
14:45 11.2 °C 6.3 °C 992.1 hPa WSW 6.4 km/h 18.5 km/h 72 % 0 mm
14:50 11.1 °C 4.7 °C 992.1 hPa WSW 14.5 km/h 19.3 km/h 65 % 0 mm
14:55 11.1 °C 3.3 °C 992.1 hPa WSW 12.7 km/h 29.6 km/h 59 % 0 mm
15:00 11 °C 2.8 °C 992.1 hPa SW 14.6 km/h 31.5 km/h 57 % 0 mm
15:05 10.9 °C 2.5 °C 992.4 hPa SW 9 km/h 18.5 km/h 56 % 0 mm
15:10 10.8 °C 2.4 °C 992.8 hPa SW 17.9 km/h 25.9 km/h 56 % 0 mm
15:15 10.7 °C 2.2 °C 992.4 hPa WNW 13.2 km/h 27.8 km/h 56 % 0 mm
15:20 10.5 °C 1.8 °C 992.4 hPa West 11.7 km/h 29.6 km/h 55 % 0 mm
15:26 10.4 °C 2 °C 992.4 hPa West 18.7 km/h 22.5 km/h 56 % 0 mm
15:31 10.3 °C 1.7 °C 992.8 hPa WNW 13.4 km/h 22.5 km/h 55 % 0 mm
15:32 10.3 °C 1.4 °C 992.8 hPa WNW 7.6 km/h 18.5 km/h 54 % 0 mm
15:37 10.3 °C 1.9 °C 992.8 hPa WNW 11.1 km/h 31.5 km/h 56 % 0 mm
15:38 10.3 °C 1.9 °C 992.8 hPa WSW 12.1 km/h 16.7 km/h 56 % 0 mm
15:43 10 °C 1.6 °C 992.8 hPa WSW 16.7 km/h 35.2 km/h 56 % 0 mm
15:48 9.7 °C 1.3 °C 993.1 hPa WSW 11.7 km/h 33.3 km/h 56 % 0 mm
15:53 9.5 °C 1.4 °C 993.5 hPa West 13.7 km/h 25.9 km/h 57 % 0 mm
15:58 9.3 °C 0.7 °C 993.5 hPa West 26.7 km/h 31.5 km/h 55 % 0 mm
16:04 9.2 °C 0.3 °C 993.5 hPa WSW 17.4 km/h 22.2 km/h 54 % 0 mm
16:09 9.1 °C -0.1 °C 993.5 hPa West 19.5 km/h 30.6 km/h 53 % 0 mm
16:14 8.9 °C -0.1 °C 993.8 hPa WSW 18.7 km/h 29 km/h 53 % 0 mm
16:19 8.8 °C -0.2 °C 993.8 hPa WSW 15.9 km/h 22.2 km/h 53 % 0 mm
16:24 8.8 °C -0.3 °C 993.8 hPa West 16.6 km/h 29.6 km/h 53 % 0 mm
16:29 8.7 °C -0.1 °C 993.8 hPa SW 13.7 km/h 27.4 km/h 54 % 0 mm
16:35 8.7 °C -0.1 °C 993.8 hPa WSW 12.1 km/h 25.9 km/h 54 % 0 mm
16:40 8.6 °C -0.2 °C 993.8 hPa WNW 21.4 km/h 37 km/h 54 % 0 mm
16:45 8.5 °C -0.3 °C 994.1 hPa WSW 11.4 km/h 27.8 km/h 54 % 0 mm
16:50 8.4 °C -0.4 °C 993.8 hPa West 17.5 km/h 31.5 km/h 54 % 0 mm
16:55 8.3 °C -0.8 °C 994.1 hPa WSW 10.1 km/h 31.5 km/h 53 % 0 mm
17:00 8.2 °C -0.3 °C 994.1 hPa SW 14.3 km/h 38.9 km/h 55 % 0 mm
17:05 8.1 °C -0.2 °C 994.1 hPa WSW 14.2 km/h 31.5 km/h 56 % 0 mm
17:10 7.9 °C 0.4 °C 994.1 hPa WNW 4.7 km/h 14.8 km/h 59 % 0 mm
17:15 7.8 °C 0.5 °C 994.5 hPa SW 14.3 km/h 24.1 km/h 60 % 0 mm
17:25 7.4 °C 0.4 °C 994.8 hPa WNW 18.7 km/h 25.9 km/h 61 % 0 mm
17:30 7.3 °C 0.3 °C 994.8 hPa West 12.6 km/h 25.7 km/h 61 % 0 mm
17:35 7.3 °C 0 °C 994.8 hPa West 21.7 km/h 31.5 km/h 60 % 0 mm
17:46 7.2 °C -0.6 °C 995.1 hPa WNW 17.2 km/h 27.8 km/h 58 % 0 mm
17:51 7.1 °C -0.4 °C 995.1 hPa West 10.9 km/h 27.8 km/h 59 % 0 mm
17:56 7.1 °C -0.7 °C 995.1 hPa WSW 15.9 km/h 38.9 km/h 58 % 0 mm
18:01 7.1 °C -0.7 °C 995.1 hPa WSW 9 km/h 20.4 km/h 58 % 0 mm
18:06 7.1 °C -0.7 °C 995.1 hPa West 16.1 km/h 29.6 km/h 58 % 0 mm
18:11 7 °C -0.7 °C 995.5 hPa WSW 13.7 km/h 22.2 km/h 58 % 0 mm
18:16 6.9 °C -0.5 °C 995.5 hPa West 5.8 km/h 14.8 km/h 59 % 0 mm
18:21 6.9 °C -0.3 °C 995.5 hPa NW 13.8 km/h 22.2 km/h 60 % 0 mm
18:26 6.8 °C -0.6 °C 995.5 hPa SW 15.9 km/h 30.6 km/h 59 % 0 mm
18:31 6.8 °C -0.4 °C 995.5 hPa WNW 17.7 km/h 31.5 km/h 60 % 0 mm
18:36 6.8 °C -0.7 °C 995.8 hPa WNW 16.9 km/h 27.4 km/h 59 % 0 mm
18:41 6.8 °C -0.4 °C 995.8 hPa WNW 17.4 km/h 25.9 km/h 60 % 0 mm
18:51 6.8 °C -0.4 °C 995.8 hPa West 13.7 km/h 18.5 km/h 60 % 0 mm
18:56 6.8 °C -0.4 °C 995.8 hPa WSW 10.8 km/h 24.1 km/h 60 % 0 mm
18:57 6.8 °C -0.4 °C 995.8 hPa WNW 20.9 km/h 31.5 km/h 60 % 0 mm
19:01 6.7 °C -0.5 °C 995.8 hPa WNW 14.2 km/h 24.1 km/h 60 % 0 mm
19:04 6.7 °C -0.3 °C 995.8 hPa WSW 11.3 km/h 33.8 km/h 61 % 0 mm
19:05 6.7 °C -0.3 °C 995.8 hPa West 10.1 km/h 24.1 km/h 61 % 0 mm
19:10 6.7 °C -0.1 °C 995.8 hPa West 9.2 km/h 12.9 km/h 62 % 0 mm
19:16 6.7 °C -0.1 °C 995.8 hPa SW 11.3 km/h 20.4 km/h 62 % 0 mm
19:21 6.7 °C -0.1 °C 995.8 hPa WSW 18.7 km/h 27.8 km/h 62 % 0 mm
19:26 6.7 °C -0.1 °C 996.2 hPa WSW 14 km/h 20.4 km/h 62 % 0 mm
19:31 6.7 °C 0.1 °C 996.2 hPa WSW 5.6 km/h 16.7 km/h 63 % 0 mm
19:36 6.6 °C 0.3 °C 996.2 hPa West 16.7 km/h 25.9 km/h 64 % 0 mm
19:41 6.6 °C 0.3 °C 995.8 hPa WSW 11.3 km/h 27.4 km/h 64 % 0 mm
19:46 6.6 °C 0.4 °C 996.2 hPa SW 14.6 km/h 22.2 km/h 65 % 0 mm
19:51 6.5 °C 0.4 °C 996.2 hPa SSW 8.2 km/h 25.9 km/h 65 % 0 mm
19:56 6.5 °C 0.4 °C 996.2 hPa WNW 6 km/h 11.3 km/h 65 % 0 mm
20:01 6.4 °C 0.3 °C 996.2 hPa WSW 17.9 km/h 24.1 km/h 65 % 0 mm
20:06 6.5 °C 0.4 °C 996.2 hPa West 15.9 km/h 25.9 km/h 65 % 0 mm
20:11 6.4 °C 0.3 °C 995.8 hPa SSW 11.3 km/h 18.5 km/h 65 % 0 mm
20:16 6.4 °C 0.3 °C 996.2 hPa SW 14 km/h 29.6 km/h 65 % 0 mm
20:22 6.4 °C 0.3 °C 996.2 hPa WSW 8.5 km/h 13 km/h 65 % 0 mm
20:27 6.4 °C 0.3 °C 996.2 hPa West 8.7 km/h 14.8 km/h 65 % 0 mm
20:32 6.4 °C 0.3 °C 996.5 hPa WSW 10.3 km/h 24.1 km/h 65 % 0 mm
20:37 6.4 °C 0.3 °C 996.5 hPa SW 11.9 km/h 31.5 km/h 65 % 0 mm
20:42 6.4 °C 0.3 °C 996.5 hPa WSW 13.8 km/h 25.9 km/h 65 % 0 mm
20:47 6.4 °C 0.3 °C 996.5 hPa West 11.4 km/h 18.5 km/h 65 % 0 mm
20:52 6.4 °C 0.3 °C 996.5 hPa WNW 10.8 km/h 24.1 km/h 65 % 0 mm
20:57 6.3 °C 0.2 °C 996.8 hPa West 16.1 km/h 24.1 km/h 65 % 0 mm
21:02 6.3 °C 0.2 °C 996.8 hPa West 10.5 km/h 19.3 km/h 65 % 0 mm
21:07 6.3 °C 0.2 °C 996.8 hPa SW 7.7 km/h 24.1 km/h 65 % 0 mm
21:12 6.3 °C 0.2 °C 997.2 hPa West 6.1 km/h 13 km/h 65 % 0 mm
21:17 6.3 °C 0.2 °C 997.2 hPa NW 10.6 km/h 19.3 km/h 65 % 0 mm
21:22 6.3 °C 0.4 °C 997.2 hPa WNW 13.8 km/h 22.2 km/h 66 % 0 mm
21:32 6.3 °C 0.4 °C 997.5 hPa WSW 12.6 km/h 22.2 km/h 66 % 0 mm
21:37 6.3 °C 0.4 °C 997.5 hPa NW 13.5 km/h 17.7 km/h 66 % 0 mm
21:42 6.3 °C 0.2 °C 997.5 hPa West 10.9 km/h 22.2 km/h 65 % 0 mm
21:47 6.3 °C 0.4 °C 997.9 hPa SW 14.6 km/h 18.5 km/h 66 % 0 mm
21:52 6.3 °C 0.2 °C 997.9 hPa WSW 14 km/h 29 km/h 65 % 0 mm
21:58 6.3 °C 0.2 °C 998.2 hPa WNW 19.8 km/h 24.1 km/h 65 % 0 mm
22:03 6.3 °C 0.2 °C 998.2 hPa WSW 13.8 km/h 18.5 km/h 65 % 0 mm
22:08 6.3 °C 0.2 °C 998.2 hPa WSW 19.3 km/h 27.4 km/h 65 % 0 mm
22:14 6.3 °C 0.4 °C 998.2 hPa WSW 9.8 km/h 20.4 km/h 66 % 0 mm
22:19 6.3 °C 0.4 °C 998.5 hPa WNW 7.2 km/h 12.9 km/h 66 % 0 mm
22:24 6.2 °C 0.5 °C 998.5 hPa SW 11.3 km/h 13 km/h 67 % 0 mm
22:25 6.2 °C 0.5 °C 998.5 hPa WNW 10 km/h 13 km/h 67 % 0 mm
22:30 6.1 °C 0.4 °C 998.5 hPa West 12.6 km/h 22.2 km/h 67 % 0 mm
22:35 6.1 °C 0.4 °C 998.5 hPa West 6.8 km/h 14.5 km/h 67 % 0 mm
22:40 6 °C 0.6 °C 998.9 hPa WSW 16.9 km/h 25.9 km/h 68 % 0 mm
22:45 6 °C 0.6 °C 998.9 hPa West 11.4 km/h 20.9 km/h 68 % 0 mm
22:50 6 °C 0.3 °C 998.9 hPa West 10.9 km/h 18.5 km/h 67 % 0 mm
22:55 6 °C 0.3 °C 998.9 hPa West 14 km/h 18.5 km/h 67 % 0 mm
23:00 6 °C 0.6 °C 998.9 hPa WSW 10 km/h 20.4 km/h 68 % 0 mm
23:05 6 °C 0.3 °C 998.9 hPa WSW 13 km/h 22.2 km/h 67 % 0 mm
23:10 5.9 °C 0.5 °C 999.2 hPa West 14.8 km/h 24.1 km/h 68 % 0 mm
23:15 5.9 °C 0.5 °C 999.2 hPa WSW 12.2 km/h 17.7 km/h 68 % 0 mm
23:21 5.9 °C 0.4 °C 999.2 hPa WNW 10 km/h 16.7 km/h 68 % 0 mm
23:26 5.9 °C 0.6 °C 999.2 hPa WNW 11.4 km/h 20.4 km/h 69 % 0 mm
23:31 5.8 °C 0.4 °C 999.2 hPa West 11.7 km/h 31.5 km/h 68 % 0 mm
23:36 5.8 °C 0.3 °C 999.2 hPa WSW 8.2 km/h 24.1 km/h 68 % 0 mm
23:41 5.8 °C 0.3 °C 999.2 hPa West 11.6 km/h 20.4 km/h 68 % 0 mm
23:46 5.7 °C 0.3 °C 999.2 hPa NW 7.2 km/h 16.7 km/h 68 % 0 mm
23:51 5.7 °C 0.2 °C 999.5 hPa NW 11.4 km/h 18.5 km/h 68 % 0 mm
23:56 5.7 °C 0 °C 999.2 hPa WSW 14.8 km/h 22.2 km/h 67 % 0 mm
Crab Meadow Weather
Compliments of Weather Underground - 3 mb

Script developed by  Jim McMurry - jmcmurry@mwt.net Adapted for the template by  Wim van der Kuil - Leuven-Template.eu

Recycling: In 2006, a record 53.4 percent of the paper consumed in the U.S. was recovered for recycling. Americans recovered an extraordinary 53.5 million tons, averaging 360 pounds per person.